[[{"header":{"parameterUnit":"m.s-1","parameterCategory":1,"la1":30.2991,"la2":30.254,"lo1":-89.0895,"lo2":-89.0444,"dy":0.0017,"dx":0.0017,"nx":28,"ny":28,"refTime":"2024-03-02T03:00:00:Z","depth":0,"parameterNumber":2,"parameterNumberName":"U-component_of_WINDS"},"data":[0,0,0,0,0,0,0,0,0,0,0,0,0,0,0,0,0,0,0,0,0,0,0,0,0,0,0,0,0,0,0,0,0,0,0,0,0,0,0,0,0,0,0,0,0,0,0,0,0,0,0,0,0,0,0,0,0,0,-0.6191,-0.6191,0,-0.6211,-0.6211,-0.6212,-0.6189,-0.6189,-0.6188,-0.6187,-0.621,-0.6211,-0.6212,0,0,0,0,0,0,0,0,0,0,0,0,0,-0.6135,-0.6136,-0.6191,-0.6191,-0.6191,-0.6211,-0.6211,-0.6212,-0.619,-0.6189,-0.6187,-0.6186,-0.6209,-0.6211,-0.6212,0,0,0,0,0,0,0,0,0,0,0,0,0,-0.6157,-0.6136,-0.6191,-0.6183,-0.6182,-0.6211,-0.6211,-0.6212,-0.619,-0.6188,-0.6187,-0.6186,-0.6209,-0.6211,-0.6213,-0.6251,0,0,-0.6219,-0.622,0,0,0,0,0,0,0,0,-0.6156,-0.6159,-0.6184,-0.6183,-0.6183,-0.6196,-0.62,-0.6225,-0.619,-0.6187,-0.6187,-0.6185,-0.6206,-0.6209,-0.6215,-0.6252,-0.6253,-0.6219,-0.6221,-0.6221,-0.6222,0,0,0,0,0,0,0,-0.6155,-0.6158,-0.6199,-0.6184,-0.6183,-0.6178,-0.618,-0.6205,-0.6204,-0.6187,-0.6186,-0.6188,-0.6206,-0.6213,-0.6216,-0.6254,-0.6219,-0.6221,-0.6222,-0.6223,-0.6323,-0.6324,0,0,0,0,0,0,-0.6154,-0.6157,-0.6198,-0.62,-0.6166,-0.6181,-0.6183,-0.6193,-0.6203,-0.6204,-0.6189,-0.6187,-0.621,-0.6213,-0.6216,-0.6262,-0.6221,-0.6223,-0.6225,-0.6322,-0.6323,-0.6325,0,0,0,0,0,0,-0.6153,-0.6158,-0.6197,-0.6178,-0.6183,-0.6183,-0.6195,-0.6194,-0.6202,-0.6205,-0.6205,-0.6197,-0.6209,-0.6213,-0.6243,-0.6262,-0.6224,-0.6226,-0.632,-0.6322,-0.6324,-0.6354,0,0,0,0,0,0,-0.6151,-0.6157,-0.6172,-0.6178,-0.6184,-0.6223,-0.6196,-0.6196,-0.6205,-0.6203,-0.6212,-0.6212,-0.6209,-0.6239,-0.6245,-0.6265,-0.6228,-0.6318,-0.6321,-0.6323,-0.6351,-0.6356,-0.6361,0,0,0,0,0,-0.6149,-0.618,-0.6172,-0.6178,-0.6202,-0.6224,-0.6227,-0.6222,-0.6207,-0.6221,-0.6223,-0.6212,-0.6259,-0.6243,-0.6248,-0.6269,-0.6317,-0.632,-0.6323,-0.6348,-0.6355,-0.6361,0,0,0,0,0,0,-0.6176,-0.618,-0.6173,-0.6206,-0.6215,-0.622,-0.6239,-0.6229,-0.6243,-0.624,-0.6234,-0.6236,-0.6267,-0.6271,-0.6252,-0.6307,-0.6286,-0.629,-0.6303,-0.631,-0.6315,-0.6313,-0.623,0,0,0,0,0,-0.6186,-0.6203,-0.6206,-0.6236,-0.624,-0.6239,-0.6248,-0.6243,-0.6252,-0.6256,-0.626,-0.627,-0.6287,-0.6298,-0.6314,-0.6351,-0.6353,-0.6368,-0.6373,-0.6378,-0.6382,-0.6401,-0.6408,-0.6335,-0.6335,-0.6335,0,0,-0.6206,-0.6211,-0.6222,-0.6241,-0.6247,-0.6266,-0.6242,-0.6263,-0.6277,-0.626,-0.6287,-0.629,-0.6301,-0.6334,-0.6349,-0.6338,-0.6402,-0.6382,-0.6385,-0.6387,-0.6405,-0.6412,-0.6418,-0.6337,-0.6337,-0.6336,0,0,-0.6253,-0.6258,-0.6283,-0.6289,-0.6299,-0.6297,-0.6303,-0.631,-0.6312,-0.6339,-0.6326,-0.6343,-0.6372,-0.638,-0.6388,-0.6437,-0.6427,-0.6442,-0.647,-0.6489,-0.6494,-0.65,-0.6517,-0.6523,-0.6446,-0.6446,-0.6446,0,-0.6278,-0.6304,-0.6297,-0.6319,-0.6327,-0.6312,-0.6337,-0.6344,-0.6358,-0.6365,-0.6353,-0.6389,-0.6395,-0.6429,-0.6441,-0.6448,-0.6455,-0.6442,-0.6494,-0.6499,-0.6504,-0.652,-0.6527,-0.6448,-0.6448,-0.6448,-0.6448,0,-0.6334,-0.6353,-0.6372,-0.6385,-0.6396,-0.6419,-0.6416,-0.6428,-0.6422,-0.6422,-0.645,-0.6456,-0.6473,-0.6481,-0.6475,-0.6514,-0.6508,-0.6495,-0.6474,-0.6513,-0.6528,-0.6534,-0.6451,-0.645,-0.645,-0.6449,0,0,-0.6399,-0.6407,-0.6415,-0.642,-0.6429,-0.6444,-0.6466,-0.6482,-0.6492,-0.6502,-0.6521,-0.6546,-0.6534,-0.6543,-0.6539,-0.6555,-0.6594,-0.6541,-0.6541,-0.655,-0.6637,-0.6646,-0.6654,-0.6587,-0.6588,-0.6589,-0.6636,0,-0.6446,-0.6485,-0.6478,-0.6516,-0.6533,-0.6518,-0.6538,-0.6546,-0.6546,-0.6561,-0.6562,-0.658,-0.6563,-0.6568,-0.6584,-0.6586,-0.6611,-0.6582,-0.6605,-0.6606,-0.6603,-0.6662,-0.6672,-0.6716,-0.6642,-0.6643,-0.6644,0,-0.6506,-0.6518,-0.6557,-0.6562,-0.6569,-0.6587,-0.66,-0.6615,-0.6623,-0.6623,-0.6632,-0.6624,-0.6647,-0.6625,-0.6656,-0.6637,-0.6646,-0.6648,-0.665,-0.6652,-0.6627,-0.6666,-0.673,-0.6737,-0.6653,-0.6653,-0.6652,0,-0.655,-0.6575,-0.6601,-0.6607,-0.6614,-0.6627,-0.663,-0.6638,-0.6647,-0.6659,-0.6665,-0.668,-0.6688,-0.67,-0.6696,-0.6681,-0.6728,-0.6706,-0.6729,-0.6729,-0.674,-0.6739,-0.6807,-0.6745,-0.6745,-0.6745,-0.6745,0,-0.6603,-0.6627,-0.6621,-0.6637,-0.6664,-0.6657,-0.6684,-0.6686,-0.6692,-0.6709,-0.6697,-0.6713,-0.6707,-0.6723,-0.672,-0.6747,-0.675,-0.6751,-0.675,-0.6752,-0.6752,-0.6758,-0.6755,-0.6747,-0.6746,-0.6746,-0.6746,0,-0.6656,-0.6653,-0.6681,-0.6685,-0.6686,-0.6706,-0.671,-0.6725,-0.6725,-0.6746,-0.675,-0.675,-0.6767,-0.6765,-0.6785,-0.6783,-0.6816,-0.6811,-0.6813,-0.6812,-0.6834,-0.6832,-0.6908,-0.6918,-0.685,-0.6851,-0.6851,0,-0.6691,-0.6709,-0.6715,-0.6725,-0.6729,-0.6745,-0.6755,-0.6748,-0.6758,-0.6769,-0.6783,-0.68,-0.6813,-0.6842,-0.6843,-0.6859,-0.6854,-0.688,-0.6857,-0.6858,-0.6855,-0.6854,-0.6855,-0.6885,-0.6885,-0.6886,-0.6886,0,-0.6752,-0.6749,-0.6763,-0.6776,-0.6787,-0.6797,-0.6806,-0.6815,-0.6809,-0.6822,-0.6839,-0.6849,-0.6869,-0.6886,-0.69,-0.6904,-0.6895,-0.6894,-0.69,-0.6902,-0.6902,-0.6902,-0.6825,-0.6892,-0.6891,-0.6891,-0.6891,-0.6891,-0.6797,-0.6812,-0.6818,-0.6834,-0.684,-0.6848,-0.6863,-0.6863,-0.6878,-0.6893,-0.6888,-0.6908,-0.6916,-0.6934,-0.6939,-0.6955,-0.6946,-0.6955,-0.6957,-0.6959,-0.6962,-0.6899,-0.6958,-0.6958,-0.6957,-0.6957,-0.6957,0,-0.6857,-0.686,-0.6874,-0.6887,-0.6899,-0.6888,-0.6897,-0.6909,-0.6926,-0.6934,-0.6946,-0.6966,-0.6982,-0.6985,-0.7,-0.7012,-0.7008,-0.7016,-0.7015,-0.7016,-0.6969,-0.6963,-0.7019,-0.7019,-0.7019,-0.7019,-0.7019,-0.7019,-0.689,-0.6915,-0.6913,-0.6941,-0.6944,-0.6963,-0.6969,-0.6977,-0.6983,-0.7006,-0.7019,-0.702,-0.7026,-0.7041,-0.7055,-0.7055,-0.7061,-0.7071,-0.707,-0.7026,-0.702,-0.7014,-0.7008,-0.7073,-0.7073,-0.7116,-0.7116,-0.7117]},{"header":{"parameterUnit":"m.s-1","parameterCategory":1,"la1":30.2991,"la2":30.254,"lo1":-89.0895,"lo2":-89.0444,"dy":0.0017,"dx":0.0017,"nx":28,"ny":28,"refTime":"2024-03-02T03:00:00:Z","depth":0,"parameterNumber":3,"parameterNumberName":"V-component_of_WINDS"},"data":[0,0,0,0,0,0,0,0,0,0,0,0,0,0,0,0,0,0,0,0,0,0,0,0,0,0,0,0,0,0,0,0,0,0,0,0,0,0,0,0,0,0,0,0,0,0,0,0,0,0,0,0,0,0,0,0,0,0,-2.0415,-2.0414,0,-2.0409,-2.0408,-2.0408,-2.0384,-2.0384,-2.0383,-2.0383,-2.0377,-2.0377,-2.0378,0,0,0,0,0,0,0,0,0,0,0,0,0,-2.0405,-2.0406,-2.0415,-2.0414,-2.0414,-2.0409,-2.0408,-2.0408,-2.0384,-2.0384,-2.0383,-2.0382,-2.0377,-2.0377,-2.0378,0,0,0,0,0,0,0,0,0,0,0,0,0,-2.0405,-2.0406,-2.0415,-2.0402,-2.04,-2.0409,-2.0408,-2.0408,-2.0384,-2.0384,-2.0383,-2.0382,-2.0377,-2.0377,-2.0378,-2.0398,0,0,-2.0379,-2.038,0,0,0,0,0,0,0,0,-2.0406,-2.0406,-2.0404,-2.0403,-2.0401,-2.0396,-2.0403,-2.0405,-2.0385,-2.0391,-2.0383,-2.0382,-2.0384,-2.0384,-2.0385,-2.0398,-2.0397,-2.0379,-2.038,-2.038,-2.038,0,0,0,0,0,0,0,-2.0406,-2.0406,-2.0412,-2.0404,-2.0402,-2.0396,-2.0395,-2.0403,-2.0392,-2.039,-2.0388,-2.0388,-2.0383,-2.0384,-2.0384,-2.0397,-2.0379,-2.038,-2.038,-2.038,-2.0426,-2.0427,0,0,0,0,0,0,-2.0407,-2.0406,-2.0412,-2.0412,-2.0401,-2.0397,-2.0396,-2.0399,-2.0392,-2.039,-2.0389,-2.0387,-2.0384,-2.0384,-2.0384,-2.0407,-2.038,-2.0381,-2.0381,-2.0425,-2.0426,-2.0427,0,0,0,0,0,0,-2.0407,-2.0408,-2.0413,-2.0409,-2.0409,-2.0398,-2.0401,-2.0399,-2.04,-2.0391,-2.0389,-2.0392,-2.0383,-2.0383,-2.0395,-2.0407,-2.0381,-2.0381,-2.0424,-2.0426,-2.0427,-2.0453,0,0,0,0,0,0,-2.0407,-2.0408,-2.0416,-2.0409,-2.0409,-2.0423,-2.0402,-2.04,-2.0401,-2.0398,-2.0393,-2.0391,-2.0382,-2.0394,-2.0395,-2.0407,-2.0382,-2.0423,-2.0425,-2.0427,-2.0451,-2.0456,-2.0459,0,0,0,0,0,-2.0407,-2.0424,-2.0416,-2.0417,-2.0418,-2.0424,-2.0424,-2.0413,-2.0402,-2.0409,-2.0404,-2.0392,-2.0405,-2.0395,-2.0396,-2.0409,-2.0422,-2.0424,-2.0426,-2.045,-2.0455,-2.0459,0,0,0,0,0,0,-2.0432,-2.0422,-2.0414,-2.0429,-2.0428,-2.042,-2.0429,-2.0419,-2.042,-2.0418,-2.0404,-2.0403,-2.0417,-2.0414,-2.0403,-2.0428,-2.0412,-2.0414,-2.0429,-2.0434,-2.0437,-2.0438,-2.0382,0,0,0,0,0,-2.0439,-2.0445,-2.0436,-2.045,-2.045,-2.044,-2.0442,-2.0433,-2.0431,-2.043,-2.0425,-2.0424,-2.0428,-2.0431,-2.0434,-2.0451,-2.0449,-2.046,-2.0464,-2.0467,-2.0469,-2.0478,-2.0482,-2.0434,-2.0434,-2.0434,0,0,-2.0455,-2.045,-2.0454,-2.0455,-2.0453,-2.0459,-2.0439,-2.0446,-2.0451,-2.0432,-2.0442,-2.0438,-2.0436,-2.045,-2.0456,-2.0448,-2.0482,-2.0469,-2.0472,-2.0472,-2.048,-2.0485,-2.0489,-2.0435,-2.0435,-2.0435,0,0,-2.0485,-2.0482,-2.0494,-2.0492,-2.0489,-2.0482,-2.0485,-2.0478,-2.0475,-2.0485,-2.0471,-2.0476,-2.0483,-2.0482,-2.0482,-2.0512,-2.0501,-2.0513,-2.0533,-2.0542,-2.0546,-2.0549,-2.056,-2.0564,-2.0516,-2.0516,-2.0516,0,-2.0505,-2.0513,-2.0501,-2.0509,-2.051,-2.0493,-2.0504,-2.0503,-2.0501,-2.0502,-2.0493,-2.0501,-2.0498,-2.0512,-2.0519,-2.052,-2.0523,-2.0514,-2.0546,-2.0549,-2.0552,-2.0562,-2.0567,-2.0517,-2.0517,-2.0517,-2.0517,0,-2.0537,-2.0543,-2.0552,-2.0551,-2.0553,-2.0562,-2.0552,-2.0555,-2.0547,-2.0541,-2.0551,-2.0547,-2.0549,-2.0552,-2.0544,-2.0565,-2.056,-2.0549,-2.0532,-2.0559,-2.0568,-2.0572,-2.0519,-2.0519,-2.0518,-2.0518,0,0,-2.0584,-2.0575,-2.0579,-2.0578,-2.0573,-2.0577,-2.0586,-2.0588,-2.0591,-2.059,-2.0598,-2.0604,-2.0593,-2.0594,-2.0585,-2.0593,-2.0617,-2.0581,-2.0581,-2.0588,-2.064,-2.0648,-2.0653,-2.061,-2.0611,-2.0611,-2.064,0,-2.0613,-2.0627,-2.0617,-2.0633,-2.0639,-2.0622,-2.063,-2.0628,-2.0623,-2.0627,-2.0621,-2.0626,-2.0612,-2.0612,-2.0619,-2.0613,-2.0628,-2.0611,-2.0617,-2.0617,-2.0618,-2.0658,-2.0667,-2.0694,-2.0644,-2.0644,-2.0645,0,-2.0649,-2.0649,-2.0666,-2.066,-2.0662,-2.0669,-2.067,-2.0674,-2.0671,-2.0667,-2.0667,-2.0657,-2.0665,-2.065,-2.0661,-2.065,-2.0652,-2.0649,-2.065,-2.065,-2.0633,-2.0659,-2.0703,-2.0707,-2.065,-2.065,-2.065,0,-2.0681,-2.0686,-2.0697,-2.0697,-2.069,-2.0695,-2.0693,-2.0689,-2.0691,-2.0692,-2.0692,-2.0694,-2.0695,-2.0697,-2.0687,-2.0676,-2.07,-2.0683,-2.0697,-2.0697,-2.0702,-2.0702,-2.0747,-2.0704,-2.0704,-2.0704,-2.0703,0,-2.0715,-2.0726,-2.0711,-2.0718,-2.073,-2.0718,-2.073,-2.0725,-2.0723,-2.0728,-2.0714,-2.072,-2.0707,-2.0711,-2.0704,-2.0715,-2.0715,-2.0712,-2.071,-2.0713,-2.0714,-2.0714,-2.0712,-2.0705,-2.0704,-2.0704,-2.0704,0,-2.0753,-2.0743,-2.0754,-2.0747,-2.0745,-2.0754,-2.0748,-2.0754,-2.0748,-2.0755,-2.0756,-2.0746,-2.0751,-2.0741,-2.0745,-2.0739,-2.0755,-2.075,-2.0756,-2.0754,-2.0768,-2.0767,-2.0815,-2.082,-2.0774,-2.0774,-2.0774,0,-2.0775,-2.0783,-2.0776,-2.0779,-2.0777,-2.0782,-2.0783,-2.0771,-2.0774,-2.0771,-2.0778,-2.0781,-2.0783,-2.079,-2.0784,-2.0786,-2.0781,-2.0798,-2.0781,-2.0784,-2.0781,-2.0781,-2.0782,-2.0801,-2.0802,-2.0802,-2.0802,0,-2.0815,-2.081,-2.0813,-2.0814,-2.0816,-2.0816,-2.0816,-2.0819,-2.0806,-2.081,-2.0814,-2.0815,-2.0818,-2.0822,-2.0822,-2.082,-2.0809,-2.0808,-2.0811,-2.0814,-2.0817,-2.0816,-2.0765,-2.0807,-2.0806,-2.0806,-2.0806,-2.0805,-2.0846,-2.0852,-2.0848,-2.0852,-2.085,-2.085,-2.0855,-2.0849,-2.0853,-2.0854,-2.0847,-2.0853,-2.085,-2.085,-2.0849,-2.0853,-2.0846,-2.085,-2.0851,-2.0853,-2.0855,-2.0817,-2.0853,-2.0853,-2.0853,-2.0853,-2.0853,0,-2.0885,-2.0882,-2.0885,-2.0885,-2.0887,-2.0877,-2.0876,-2.0879,-2.0884,-2.0882,-2.0884,-2.0889,-2.0892,-2.0886,-2.0888,-2.0893,-2.0888,-2.0894,-2.0894,-2.0893,-2.0862,-2.0859,-2.0898,-2.0898,-2.0898,-2.0898,-2.0898,-2.0898,-2.0906,-2.0916,-2.0911,-2.092,-2.0917,-2.0922,-2.0922,-2.0922,-2.0921,-2.0927,-2.0929,-2.0925,-2.0921,-2.0923,-2.0926,-2.0924,-2.0925,-2.0933,-2.0929,-2.09,-2.0895,-2.0891,-2.0888,-2.0933,-2.0933,-2.096,-2.0961,-2.0961]}]]